TimePST,TemperatureF,Dew PointF,Humidity,Sea Level PressureIn,VisibilityMPH,Wind Direction,Wind SpeedMPH,Gust SpeedMPH,PrecipitationIn,Events,Conditions,WindDirDegrees,DateUTC
12:15 AM,50.0,28.4,43,30.20,10.0,ESE,6.9,-,N/A,,Clear,110,2014-01-02 08:15:00
12:35 AM,50.0,28.4,43,30.20,10.0,East,6.9,-,N/A,,Clear,100,2014-01-02 08:35:00
12:55 AM,53.6,28.4,38,30.19,10.0,ESE,5.8,-,N/A,,Clear,110,2014-01-02 08:55:00
1:15 AM,55.4,28.4,36,30.19,10.0,East,5.8,-,N/A,,Clear,100,2014-01-02 09:15:00
1:35 AM,50.0,28.4,43,30.19,10.0,East,6.9,-,N/A,,Clear,100,2014-01-02 09:35:00
1:55 AM,50.0,28.4,43,30.19,10.0,East,8.1,-,N/A,,Clear,100,2014-01-02 09:55:00
2:15 AM,50.0,26.6,40,30.20,10.0,East,5.8,-,N/A,,Clear,100,2014-01-02 10:15:00
2:35 AM,50.0,26.6,40,30.20,10.0,East,6.9,-,N/A,,Clear,100,2014-01-02 10:35:00
2:55 AM,53.6,26.6,35,30.20,10.0,ESE,4.6,-,N/A,,Clear,110,2014-01-02 10:55:00
3:15 AM,53.6,26.6,35,30.19,10.0,ESE,5.8,-,N/A,,Clear,120,2014-01-02 11:15:00
3:35 AM,57.2,24.8,29,30.19,10.0,Calm,Calm,-,N/A,,Clear,0,2014-01-02 11:35:00
3:55 AM,53.6,26.6,35,30.19,10.0,Calm,Calm,-,N/A,,Clear,0,2014-01-02 11:55:00
4:15 AM,55.4,24.8,31,30.19,10.0,ESE,3.5,-,N/A,,Clear,110,2014-01-02 12:15:00
4:35 AM,53.6,24.8,33,30.18,10.0,ESE,5.8,-,N/A,,Clear,110,2014-01-02 12:35:00
4:55 AM,50.0,24.8,37,30.18,10.0,East,5.8,-,N/A,,Clear,100,2014-01-02 12:55:00
5:15 AM,55.4,24.8,31,30.18,10.0,East,3.5,-,N/A,,Clear,90,2014-01-02 13:15:00
5:35 AM,55.4,24.8,31,30.18,10.0,Calm,Calm,-,N/A,,Clear,0,2014-01-02 13:35:00
5:55 AM,51.8,24.8,35,30.18,10.0,East,4.6,-,N/A,,Clear,80,2014-01-02 13:55:00
6:15 AM,51.8,24.8,35,30.18,10.0,East,3.5,-,N/A,,Clear,100,2014-01-02 14:15:00
6:35 AM,55.4,24.8,31,30.19,10.0,Calm,Calm,-,N/A,,Clear,0,2014-01-02 14:35:00
6:55 AM,55.4,23.0,29,30.18,10.0,ENE,3.5,-,N/A,,Clear,60,2014-01-02 14:55:00
7:15 AM,51.8,24.8,35,30.18,10.0,East,4.6,-,N/A,,Clear,100,2014-01-02 15:15:00
7:35 AM,53.6,23.0,30,30.19,10.0,East,4.6,-,N/A,,Clear,90,2014-01-02 15:35:00
7:55 AM,53.6,24.8,33,30.20,10.0,East,3.5,-,N/A,,Clear,100,2014-01-02 15:55:00
8:15 AM,53.6,24.8,33,30.20,10.0,ENE,4.6,-,N/A,,Clear,60,2014-01-02 16:15:00
8:35 AM,55.4,24.8,31,30.20,10.0,East,5.8,-,N/A,,Clear,80,2014-01-02 16:35:00
8:55 AM,57.2,26.6,31,30.20,10.0,East,3.5,-,N/A,,Clear,90,2014-01-02 16:55:00
9:15 AM,59.0,26.6,29,30.20,10.0,ESE,4.6,-,N/A,,Clear,110,2014-01-02 17:15:00
9:35 AM,60.8,26.6,27,30.21,10.0,East,4.6,-,N/A,,Clear,100,2014-01-02 17:35:00
9:55 AM,62.6,26.6,26,30.21,10.0,Calm,Calm,-,N/A,,Clear,0,2014-01-02 17:55:00
10:15 AM,64.4,28.4,26,30.21,10.0,South,3.5,-,N/A,,Clear,190,2014-01-02 18:15:00
10:35 AM,60.8,30.2,31,30.21,10.0,Calm,Calm,-,N/A,,Clear,0,2014-01-02 18:35:00
10:55 AM,62.6,32.0,32,30.21,10.0,WSW,3.5,-,N/A,,Clear,240,2014-01-02 18:55:00
11:15 AM,62.6,30.2,30,30.20,10.0,Calm,Calm,-,N/A,,Clear,0,2014-01-02 19:15:00
11:35 AM,64.4,32.0,30,30.19,10.0,WSW,4.6,-,N/A,,Clear,240,2014-01-02 19:35:00
11:55 AM,62.6,30.2,30,30.18,10.0,Calm,Calm,-,N/A,,Clear,0,2014-01-02 19:55:00
12:15 PM,62.6,28.4,27,30.17,10.0,Calm,Calm,-,N/A,,Clear,0,2014-01-02 20:15:00
12:35 PM,62.6,28.4,27,30.16,10.0,WNW,3.5,-,N/A,,Clear,300,2014-01-02 20:35:00
12:55 PM,62.6,26.6,26,30.15,10.0,Calm,Calm,-,N/A,,Clear,0,2014-01-02 20:55:00
1:15 PM,62.6,28.4,27,30.14,10.0,Calm,Calm,-,N/A,,Clear,0,2014-01-02 21:15:00
1:35 PM,64.4,28.4,26,30.14,10.0,Calm,Calm,-,N/A,,Clear,0,2014-01-02 21:35:00
1:55 PM,64.4,28.4,26,30.13,10.0,West,3.5,-,N/A,,Clear,280,2014-01-02 21:55:00
2:15 PM,64.4,28.4,26,30.13,10.0,WNW,3.5,-,N/A,,Clear,300,2014-01-02 22:15:00
2:35 PM,64.4,28.4,26,30.13,10.0,WNW,4.6,-,N/A,,Clear,290,2014-01-02 22:35:00
2:55 PM,62.6,28.4,27,30.13,10.0,WNW,4.6,-,N/A,,Clear,290,2014-01-02 22:55:00
3:15 PM,62.6,30.2,30,30.13,10.0,NW,3.5,-,N/A,,Clear,320,2014-01-02 23:15:00
3:35 PM,62.6,30.2,30,30.13,10.0,West,3.5,-,N/A,,Clear,280,2014-01-02 23:35:00
3:55 PM,62.6,32.0,32,30.13,10.0,West,4.6,-,N/A,,Clear,270,2014-01-02 23:55:00
4:15 PM,60.8,32.0,34,30.12,10.0,Calm,Calm,-,N/A,,Clear,0,2014-01-03 00:15:00
4:35 PM,59.0,32.0,36,30.12,10.0,WNW,3.5,-,N/A,,Clear,300,2014-01-03 00:35:00
4:55 PM,57.2,32.0,38,30.12,10.0,NNW,3.5,-,N/A,,Clear,330,2014-01-03 00:55:00
5:15 PM,57.2,32.0,38,30.12,10.0,North,4.6,-,N/A,,Clear,350,2014-01-03 01:15:00
5:35 PM,57.2,32.0,38,30.12,10.0,Calm,Calm,-,N/A,,Clear,0,2014-01-03 01:35:00
5:55 PM,57.2,32.0,38,30.11,10.0,ENE,6.9,-,N/A,,Clear,60,2014-01-03 01:55:00
6:15 PM,55.4,32.0,41,30.11,10.0,East,5.8,-,N/A,,Clear,100,2014-01-03 02:15:00
6:35 PM,57.2,32.0,38,30.11,10.0,East,6.9,-,N/A,,Clear,90,2014-01-03 02:35:00
6:55 PM,57.2,32.0,38,30.11,10.0,East,6.9,-,N/A,,Clear,80,2014-01-03 02:55:00
7:15 PM,57.2,32.0,38,30.11,10.0,East,6.9,-,N/A,,Clear,90,2014-01-03 03:15:00
7:35 PM,55.4,32.0,41,30.11,10.0,East,5.8,-,N/A,,Clear,100,2014-01-03 03:35:00
7:55 PM,55.4,30.2,38,30.11,10.0,East,6.9,-,N/A,,Clear,90,2014-01-03 03:55:00
8:15 PM,57.2,30.2,36,30.11,10.0,East,4.6,-,N/A,,Clear,100,2014-01-03 04:15:00
8:35 PM,57.2,30.2,36,30.11,10.0,Calm,Calm,-,N/A,,Clear,0,2014-01-03 04:35:00
8:55 PM,55.4,30.2,38,30.11,10.0,ESE,4.6,-,N/A,,Clear,110,2014-01-03 04:55:00
9:15 PM,55.4,30.2,38,30.11,10.0,ESE,4.6,-,N/A,,Clear,110,2014-01-03 05:15:00
9:35 PM,55.4,30.2,38,30.11,10.0,ESE,5.8,-,N/A,,Clear,110,2014-01-03 05:35:00
9:55 PM,53.6,30.2,41,30.11,10.0,ESE,6.9,-,N/A,,Clear,110,2014-01-03 05:55:00
10:15 PM,53.6,30.2,41,30.11,10.0,East,5.8,-,N/A,,Clear,100,2014-01-03 06:15:00
10:35 PM,57.2,28.4,33,30.11,10.0,ESE,4.6,-,N/A,,Clear,110,2014-01-03 06:35:00
10:55 PM,51.8,28.4,41,30.11,10.0,East,6.9,-,N/A,,Clear,100,2014-01-03 06:55:00
11:15 PM,51.8,28.4,41,30.11,10.0,East,8.1,-,N/A,,Clear,100,2014-01-03 07:15:00
11:35 PM,50.0,28.4,43,30.11,10.0,ESE,6.9,-,N/A,,Clear,110,2014-01-03 07:35:00
11:55 PM,51.8,28.4,41,30.11,10.0,East,6.9,-,N/A,,Clear,100,2014-01-03 07:55:00